Weather History for Aurora, IL

Change the Weather History Date:

Tuesday, February 5, 2013

  Actual Average Record
Temperature  
Mean Temperature 16 °F 22 °F  
Max Temperature 30 °F 31 °F 54 °F (2005)
Min Temperature 1 °F 13 °F -11 °F (2007)
Degree Days  
Heating Degree Days 49 43  
Month to date heating degree days 260 217  
Since 1 July heating degree days 3947 4234  
Cooling Degree Days 0 0  
Month to date cooling degree days 0 0  
Year to date cooling degree days 0 0  
Moisture  
Dew Point 20 °F    
Average Humidity 84    
Maximum Humidity 95    
Minimum Humidity 72    
Precipitation  
Precipitation 0.01 in 0.04 in 0.23 in (2008)
Month to date precipitation 0.01 0.20  
Year to date precipitation 3.15 1.67  
Sea Level Pressure  
Sea Level Pressure 29.91 in    
Wind  
Wind Speed 8 mph (West)    
Max Wind Speed 21 mph    
Max Gust Speed 25 mph    
Visibility 5 miles    
Events Fog , Snow    
T = Trace of Precipitation, MM = Missing Value Source: NWS Daily Summary

Daily Weather History Graph

Daily Weather History Graph

Search for Another Location

Airport:

Trip Planner

Search our weather history database for the weather conditions in past years. The results will help you decide how hot, cold, wet, or windy it might be!

Date:

Astronomy

Feb. 05, 2013 Rise Set
Actual Time 7:01 AM CST 5:14 PM CST
Civil Twilight 6:32 AM CST 5:44 PM CST
Nautical Twilight 5:59 AM CST 6:17 PM CST
Astronomical Twilight 5:26 AM CST 6:49 PM CST
Moon 2:44 AM CST (2/5) 12:30 PM CST (2/5)
Length of Visible Light 11h 11m
Length of Day
10h 13m
Waning Crescent, 26% of the Moon is Illuminated
Feb 5
Waning Crescent
Feb 10
New
Feb 17
First Quarter
Feb 25
Full
Mar 4
Last Quarter

Hourly Weather History & Observations

Time (CST) Temp. Windchill Dew Point Humidity Pressure Visibility Wind Dir Wind Speed Gust Speed Precip Events Conditions
12:52 AM 8.1 °F - 3.9 °F 83% 29.97 in 10.0 mi Calm Calm - N/A   Clear
1:52 AM 6.1 °F -0.9 °F 1.9 °F 83% 29.97 in 10.0 mi West 3.5 mph - N/A   Clear
2:52 AM 6.1 °F - 1.9 °F 83% 29.94 in 10.0 mi Calm Calm - N/A   Clear
3:52 AM 3.9 °F - 1.0 °F 88% 29.94 in 10.0 mi Calm Calm - N/A   Clear
4:52 AM 10.0 °F 3.6 °F 6.1 °F 84% 29.95 in 10.0 mi WSW 3.5 mph - N/A   Overcast
5:52 AM 14.0 °F 5.1 °F 8.1 °F 77% 29.94 in 10.0 mi SW 5.8 mph - N/A   Overcast
6:33 AM 15.8 °F 7.2 °F 10.4 °F 79% 29.90 in 2.5 mi SSW 5.8 mph - 0.00 in Snow Light Snow
6:52 AM 15.1 °F 6.4 °F 12.0 °F 88% 29.92 in 2.5 mi SSE 5.8 mph - 0.00 in Snow Light Snow
7:25 AM 15.8 °F 7.2 °F 12.2 °F 86% 29.87 in 4.0 mi SE 5.8 mph - 0.00 in   Overcast
7:52 AM 16.0 °F 5.3 °F 14.0 °F 92% 29.91 in 6.0 mi South 8.1 mph - 0.00 in   Overcast
8:52 AM 19.9 °F 10.1 °F 17.1 °F 89% 29.88 in 7.0 mi South 8.1 mph - N/A   Clear
9:52 AM 21.9 °F 12.5 °F 19.0 °F 89% 29.87 in 7.0 mi South 8.1 mph - 0.01 in   Mostly Cloudy
10:52 AM 27.0 °F 14.3 °F 23.0 °F 85% 29.86 in 7.0 mi SW 17.3 mph - 0.02 in   Mostly Cloudy
11:52 AM 28.9 °F 18.2 °F 24.1 °F 82% 29.86 in 6.0 mi WSW 13.8 mph - 0.01 in   Haze
12:52 PM 30.0 °F 20.0 °F 25.0 °F 82% 29.83 in 5.0 mi WSW 12.7 mph - N/A   Haze
1:39 PM 30.2 °F 19.3 °F 26.6 °F 86% 29.81 in 1.8 mi West 15.0 mph - 0.00 in Snow Light Snow
1:50 PM 30.2 °F 20.2 °F 26.6 °F 86% 29.81 in 0.8 mi West 12.7 mph - 0.00 in Snow Light Snow
1:52 PM 30.0 °F 20.0 °F 27.0 °F 88% 29.85 in 0.8 mi West 12.7 mph - 0.00 in Snow Light Snow
1:58 PM 28.4 °F 17.0 °F 28.4 °F 100% 29.81 in 0.2 mi West 15.0 mph - 0.00 in Fog , Snow Snow
2:01 PM 28.4 °F 17.5 °F 28.4 °F 100% 29.81 in 0.5 mi West 13.8 mph - 0.00 in Fog , Snow Snow
2:07 PM 28.4 °F 17.5 °F 28.4 °F 100% 29.81 in 1.0 mi West 13.8 mph - 0.01 in Snow Light Snow
2:50 PM 30.2 °F 21.9 °F 28.4 °F 93% 29.82 in 2.0 mi West 9.2 mph - 0.01 in Snow Light Snow
2:52 PM 30.0 °F 21.7 °F 28.0 °F 92% 29.86 in 3.0 mi West 9.2 mph - 0.01 in Snow Light Snow
3:24 PM 30.2 °F 19.3 °F 26.6 °F 86% 29.85 in 1.8 mi West 15.0 mph - 0.00 in Snow Light Snow
3:40 PM 30.2 °F 20.8 °F 26.6 °F 86% 29.86 in 3.0 mi WNW 11.5 mph - 0.00 in   Overcast
3:47 PM 30.2 °F 21.9 °F 26.6 °F 86% 29.86 in 3.0 mi WNW 9.2 mph - 0.00 in   Overcast
3:52 PM 30.0 °F 21.7 °F 27.0 °F 88% 29.90 in 3.0 mi WNW 9.2 mph - 0.00 in   Overcast
4:05 PM 30.2 °F 20.2 °F 26.6 °F 86% 29.87 in 4.0 mi WNW 12.7 mph - N/A   Overcast
5:23 PM 28.4 °F 15.8 °F 24.8 °F 86% 29.92 in 6.0 mi WNW 18.4 mph - N/A   Haze
5:52 PM 28.0 °F 18.1 °F 24.1 °F 85% 29.97 in 7.0 mi WNW 11.5 mph - N/A   Overcast
6:52 PM 28.0 °F 19.3 °F 24.1 °F 85% 30.00 in 8.0 mi WNW 9.2 mph - N/A   Overcast
7:52 PM 28.9 °F 20.4 °F 24.1 °F 82% 30.02 in 8.0 mi NW 9.2 mph - N/A   Overcast
8:52 PM 28.9 °F 25.2 °F 24.1 °F 82% 30.04 in 8.0 mi WNW 3.5 mph - N/A   Overcast
9:52 PM 30.0 °F 23.2 °F 23.0 °F 75% 30.06 in 9.0 mi WNW 6.9 mph - N/A   Overcast
10:52 PM 28.9 °F 21.1 °F 23.0 °F 78% 30.07 in 8.0 mi NW 8.1 mph - N/A   Overcast
11:52 PM 28.9 °F 21.9 °F 21.9 °F 75% 30.11 in 9.0 mi North 6.9 mph - N/A   Overcast